Location: Unspecified
(40.9447°N, 78.9903°W)
Time: 00:40:06
(UTC-04:00)

Envisat - Pass Details

Date: 26 May 2019
Orbit: 764 x 766 km, 98.1° (Epoch: 18 June)

Event Time Altitude Azimuth Distance (km) Brightness Sun altitude
Rises 21:05:34 0° 213° (SSW) 3,219 6.2 -5.4°
Reaches altitude 10° 21:09:00 10° 238° (WSW) 2,299 5.8 -6.0°
Maximum altitude 21:11:39 14° 270° (W) 2,021 6.1 -6.4°
Drops below altitude 10° 21:14:20 10° 302° (WNW) 2,307 7.3 -6.8°
Sets 21:17:48 0° 327° (NNW) 3,239 7.8 -7.3°
